Theta_e
324 325 325 326 325 325 324 323 323 323 322 320 320 320 320 320 320 321 322 322 322 322 322 324 326 327 320 315 313 325 354 353 342 330 322 321 320 322 320 323 325 323 327 330 332 330 328
323 323 323 324 324 324 325 323 322 321 320 320 320 319 319 320 320 320 321 320 320 321 322 324 327 327 320 310 322 326 331 335 329 327 324 323 322 325 324 323 321 328 329 324 330 330 329
323 323 323 323 324 322 321 320 319 319 319 319 319 319 319 319 319 320 319 319 319 320 322 325 329 324 313 311 321 319 323 320 327 326 322 327 328 323 323 322 329 326 322 320 324 327 324
321 321 321 320 319 318 318 318 318 318 319 319 319 318 318 318 318 318 318 317 318 320 324 327 330 317 308 321 321 318 316 321 323 324 326 328 328 323 320 326 326 321 321 313 324 328 326
317 318 318 317 316 317 317 317 317 318 318 318 317 317 317 317 317 316 316 316 320 324 326 328 318 311 310 321 311 314 312 314 320 322 322 329 325 318 320 314 313 317 311 313 318 326 324
316 315 316 316 316 315 316 317 317 317 317 317 317 316 316 316 315 315 314 317 323 324 325 324 321 309 313 312 313 315 314 315 316 319 319 318 316 312 313 310 306 310 311 315 315 319 323
315 315 315 315 314 314 315 316 317 317 316 316 316 315 315 315 314 313 311 315 314 312 310 312 309 310 312 315 314 311 313 313 314 313 307 315 308 306 311 315 316 316 314 313 317 322 322
314 314 314 314 313 314 315 316 316 316 315 316 315 315 314 314 313 313 310 313 312 312 306 315 317 318 317 315 306 311 311 306 309 306 310 308 307 314 317 317 318 317 313 313 319 323 319
314 315 314 315 315 316 316 315 315 315 315 315 314 314 313 313 312 314 317 317 319 317 305 310 313 312 315 314 308 309 311 308 305 305 308 305 311 318 316 314 313 315 313 313 315 318 317
316 316 316 316 316 315 316 316 316 316 315 315 315 314 313 311 311 315 316 319 319 318 299 304 306 311 313 313 307 316 315 308 305 303 308 307 313 315 313 312 311 307 316 316 317 310 306
317 317 317 317 316 315 316 316 316 315 315 315 314 314 311 309 306 312 319 321 319 313 290 311 307 316 312 307 306 308 315 308 303 306 305 305 309 310 310 313 315 311 317 316 316 308 303
316 316 316 316 316 315 315 315 315 315 314 314 314 312 311 314 308 316 322 321 315 298 293 305 308 305 303 306 308 310 308 309 310 305 306 306 313 312 312 315 315 317 313 311 309 305 297
315 316 316 316 316 316 315 315 315 314 313 313 311 310 308 313 313 317 319 315 299 293 307 304 303 306 304 302 304 306 304 301 300 294 297 303 305 308 310 305 312 309 304 296 296 297 296
316 316 316 316 316 315 315 315 314 314 313 311 309 308 310 313 316 318 317 305 295 304 302 308 306 306 302 304 302 304 301 298 302 300 296 296 296 304 310 304 304 305 304 297 292 294 298
316 316 315 316 316 315 315 315 314 313 312 310 308 316 316 318 317 318 310 298 299 304 307 305 306 302 301 305 304 302 300 300 302 302 296 294 297 308 310 310 308 303 299 304 297 300 295
316 315 316 316 315 315 315 314 313 313 311 309 309 315 319 325 323 317 305 298 302 308 309 307 300 303 299 302 303 300 300 304 303 306 304 301 294 304 307 309 308 305 306 297 297 292 291
315 315 315 315 315 315 315 314 313 312 310 309 314 316 321 324 322 312 302 303 307 312 311 305 303 301 302 302 305 304 302 304 307 306 307 302 299 300 303 299 302 301 299 300 297 295 291
315 315 315 315 315 315 315 314 313 311 308 312 316 312 322 323 309 310 305 309 307 311 312 308 307 304 302 304 302 303 303 304 311 308 302 304 298 295 299 306 307 305 302 300 293 293 295
315 315 315 315 315 315 315 314 312 310 309 305 310 317 322 319 304 307 311 311 311 310 309 308 306 307 306 303 299 305 307 312 312 306 300 303 298 292 295 299 302 301 302 300 299 297 293
314 314 315 315 315 315 315 314 312 311 310 307 313 313 315 316 313 309 307 307 307 312 310 309 307 307 307 304 305 303 305 311 313 310 326 310 296 294 291 296 300 300 304 303 299 293 295
313 313 314 314 315 315 315 314 312 311 309 310 316 312 311 308 308 310 312 310 308 307 312 312 310 306 305 301 304 304 307 311 317 320 308 303 295 296 299 302 304 302 303 304 300 299 295
312 312 313 314 314 314 314 314 313 311 309 315 305 304 308 306 310 311 309 310 310 310 313 310 310 312 312 307 308 304 308 308 310 316 312 303 296 302 298 303 303 302 303 303 303 304 302
311 312 312 313 314 314 314 314 313 312 310 312 313 310 308 306 308 307 307 312 311 314 316 316 315 313 310 312 314 313 312 310 310 309 310 308 299 297 293 301 301 297 301 302 303 304 304
311 311 312 313 313 313 314 314 314 313 310 308 313 310 306 301 303 303 305 308 308 309 309 313 315 313 316 318 317 315 313 310 311 311 312 309 305 303 296 298 291 301 307 308 306 307 306
310 311 312 312 312 313 313 314 314 313 312 308 313 309 305 299 303 304 303 304 305 306 306 310 313 318 321 316 307 304 305 305 308 310 310 311 306 300 298 298 302 305 307 307 304 304 309
310 310 311 312 312 312 313 313 314 314 312 309 310 315 307 301 301 304 303 306 302 302 306 308 314 318 316 310 305 300 298 303 302 304 309 310 306 302 300 297 296 306 315 316 313 300 321
309 310 311 312 312 312 313 313 313 314 312 309 309 315 309 301 305 304 300 301 304 301 299 303 306 309 315 308 302 301 301 307 300 300 300 303 304 299 301 299 304 313 319 321 307 308 323
310 310 311 311 312 312 312 312 313 313 313 310 307 314 310 303 304 305 306 302 303 303 299 303 303 306 309 306 304 303 303 305 305 308 304 303 302 299 303 299 297 318 319 315 318 322 325
310 310 311 311 311 311 312 312 312 312 313 312 305 310 312 306 304 309 308 309 307 306 303 302 301 301 306 304 305 305 301 306 306 303 312 304 309 305 307 307 316 319 314 320 324 321 323
Wind_Speed
14 14 14 14 14 13 13 16 14 15 16 19 20 19 20 21 22 22 22 22 21 21 21 19 16 13 6 3 11 6 8 8 6 5 6 8 14 17 4 6 21 24 12 10 8 12 11
13 14 14 13 13 14 15 17 17 18 19 20 20 20 20 21 22 23 22 22 22 21 20 18 14 13 3 5 4 10 8 8 10 8 7 13 12 15 5 5 11 15 20 15 4 12 11
14 14 14 14 15 16 16 17 18 18 19 20 21 21 22 22 22 23 23 23 23 22 19 15 10 6 5 16 7 4 10 6 8 9 9 15 10 9 8 10 14 22 11 10 6 9 3
16 17 17 17 17 17 18 18 18 18 18 19 21 22 23 24 24 24 24 24 25 23 17 11 5 4 9 7 14 12 8 8 9 11 9 12 10 8 5 10 15 15 13 7 7 8 11
16 16 16 15 16 16 16 17 17 18 19 20 21 22 23 24 25 24 25 28 25 19 12 8 4 4 11 3 6 9 6 9 10 9 9 12 8 5 11 8 4 1 7 8 12 14 8
15 15 15 15 15 16 15 16 18 19 20 20 22 23 24 25 24 24 28 27 9 9 5 7 8 5 7 9 8 10 10 12 9 8 9 8 6 6 7 6 4 4 4 10 11 16 18
15 15 16 15 17 16 16 17 19 20 20 21 22 23 25 26 27 20 16 7 2 2 2 8 7 7 13 8 5 7 8 6 6 8 6 9 5 9 14 15 9 6 5 8 17 16 6
15 16 16 16 15 15 16 17 18 19 21 22 22 24 25 27 29 24 5 3 6 6 10 12 20 20 21 10 2 7 2 3 7 9 8 6 13 14 17 19 6 18 14 10 7 12 15
13 14 15 15 16 16 16 17 18 19 21 22 23 24 25 28 31 10 6 11 5 8 5 11 19 12 16 8 8 11 11 9 9 9 12 11 14 15 19 19 14 12 17 16 16 10 3
13 13 14 14 15 17 18 19 19 20 21 22 22 23 23 29 4 8 6 7 8 7 4 9 9 10 13 10 11 13 14 12 9 13 13 11 13 19 17 15 7 6 11 4 7 5 4
15 14 16 16 16 18 19 20 21 22 22 23 22 22 22 8 8 5 9 11 8 3 4 8 5 7 8 10 6 9 16 8 13 11 8 12 17 15 16 17 11 12 9 6 3 4 1
15 15 16 17 18 18 19 20 22 23 24 24 22 20 19 3 4 10 13 12 5 1 8 4 6 7 6 12 16 8 7 8 10 11 12 13 10 14 14 17 14 9 4 8 6 2 3
16 16 17 18 18 19 20 21 23 24 25 25 24 18 8 7 5 10 11 6 1 5 10 8 6 9 9 9 12 14 12 10 10 6 11 12 15 11 9 10 15 6 3 4 6 5 7
16 16 18 18 19 21 22 23 24 26 27 27 27 22 8 8 9 8 5 2 4 11 8 16 1 9 11 11 11 11 9 8 9 8 5 10 12 10 14 9 9 9 8 7 7 4 4
15 16 18 19 20 21 23 24 25 27 28 26 29 3 4 6 11 6 2 4 5 3 16 14 14 3 6 6 8 12 13 12 10 11 12 7 10 15 14 15 5 9 6 8 6 9 1
16 17 18 19 20 22 23 25 27 30 32 27 3 4 7 10 12 4 2 6 7 13 17 9 9 7 12 15 12 8 11 13 9 13 10 14 8 16 14 14 9 11 8 5 5 5 6
17 18 19 19 21 22 23 25 27 29 34 20 3 3 3 6 4 1 4 7 17 19 12 6 10 13 14 16 17 15 10 6 18 17 15 12 11 23 10 5 14 3 4 5 2 4 4
16 17 19 20 21 22 24 25 26 27 32 9 5 3 3 5 2 4 6 7 8 19 11 1 2 9 14 15 14 13 9 6 14 16 12 13 9 11 16 16 9 10 11 10 7 11 4
16 17 18 20 21 23 25 26 25 23 19 7 5 4 4 3 3 5 10 13 15 13 8 10 9 10 9 10 9 11 16 18 12 8 4 4 7 6 11 11 9 7 7 6 5 1 6
16 17 18 19 21 23 25 27 28 26 20 2 4 3 2 3 5 9 13 11 13 7 8 4 10 11 11 8 11 10 14 14 18 6 2 6 3 3 7 10 6 6 7 8 9 4 5
15 17 18 18 20 22 25 27 30 33 31 2 3 4 5 4 8 14 11 10 12 13 13 4 6 7 9 9 12 14 15 12 18 4 1 3 3 5 9 10 15 12 9 10 10 10 6
15 16 17 18 19 21 23 25 28 33 38 1 5 5 7 10 12 13 9 7 15 11 10 12 2 12 11 6 12 19 9 7 5 12 12 3 5 4 8 12 13 14 12 10 7 11 8
14 15 16 17 18 19 21 23 25 27 24 5 6 5 4 9 9 11 10 6 10 12 9 10 7 4 10 12 17 21 13 8 10 9 15 7 3 2 8 9 10 9 8 8 9 5 7
12 14 15 16 18 19 19 20 22 21 17 4 4 6 4 6 10 11 17 16 17 14 11 10 8 3 4 8 17 19 13 9 9 13 13 13 4 2 6 5 7 10 10 8 9 10 9
12 13 14 15 16 17 18 19 19 20 20 4 5 3 4 6 9 12 17 15 14 13 13 14 13 5 8 6 3 10 11 10 11 9 16 8 8 4 2 3 7 8 10 7 7 12 8
10 11 13 14 15 16 17 18 18 19 20 6 6 4 3 5 2 15 14 9 6 12 9 13 18 13 2 3 4 8 10 12 7 6 14 15 11 4 5 3 6 8 11 10 13 8 17
9 10 11 13 14 15 16 16 17 18 18 8 5 7 3 4 7 9 4 6 5 7 7 12 13 11 7 4 7 7 10 11 11 9 7 4 4 6 6 5 8 11 13 9 8 6 10
9 10 10 12 12 13 14 15 16 17 18 10 7 8 3 4 13 8 9 10 10 5 5 7 8 7 5 6 3 5 7 9 7 6 6 5 4 2 6 5 9 14 7 7 7 7 6
9 9 10 11 11 12 12 13 14 15 15 13 5 9 8 4 9 16 24 24 23 22 6 3 7 8 5 4 5 5 10 6 7 7 6 2 5 5 6 5 4 12 3 8 12 9 8
Wind_Direction
10 7 4 3 359 356 350 352 352 352 348 346 343 341 337 332 329 327 325 322 319 319 318 322 322 322 338 240 251 155 166 185 175 188 221 253 272 278 237 124 87 270 124 120 138 93 84
6 3 360 360 359 359 2 2 357 350 346 342 339 337 334 331 328 326 323 319 316 315 315 319 322 316 258 263 180 156 199 175 246 183 257 259 264 290 155 203 106 120 36 7 139 125 141
19 11 6 5 8 9 2 356 352 347 342 339 336 334 332 330 326 323 321 317 313 308 308 310 315 297 264 243 302 186 195 236 232 235 246 271 294 348 331 76 62 50 129 11 356 319 156
26 21 20 15 8 360 356 352 349 343 339 335 333 331 329 328 325 323 320 315 305 299 294 293 299 280 253 256 242 282 267 251 250 259 257 277 299 327 315 91 69 73 65 357 343 339 318
16 12 9 4 358 356 351 348 344 339 335 332 331 329 327 325 323 322 319 309 298 288 271 260 265 220 265 280 220 227 246 256 257 257 278 283 304 299 310 295 92 97 178 195 327 290 279
14 8 3 1 359 353 347 344 340 336 333 330 328 327 326 324 322 324 320 298 280 316 219 232 255 311 261 237 232 215 215 235 254 269 237 239 268 270 274 279 243 204 162 181 167 258 240
9 5 4 1 356 353 346 340 338 336 333 330 328 326 325 322 319 327 339 343 344 36 244 233 198 242 309 225 335 174 204 211 250 283 257 234 218 240 249 255 148 164 230 188 207 229 75
15 10 6 1 357 346 340 339 337 334 332 329 327 327 325 322 316 317 275 261 30 287 296 258 257 255 254 268 261 225 219 263 203 238 266 269 240 238 259 267 208 152 208 227 304 249 127
3 0 0 355 349 346 344 339 335 331 329 326 327 327 326 322 316 296 230 277 314 301 278 273 227 233 242 240 219 256 173 210 228 228 240 238 244 243 245 260 271 193 209 213 209 232 304
350 348 345 344 348 346 339 336 333 330 327 325 325 326 329 328 324 343 280 13 325 333 298 265 197 223 225 228 258 236 252 178 223 229 226 245 255 253 261 260 273 284 227 237 207 103 194
7 357 353 344 343 343 340 336 333 330 327 325 325 325 324 326 305 287 324 327 317 332 310 153 136 176 171 183 229 224 222 235 224 224 227 239 247 262 259 259 254 246 259 295 237 249 337
359 355 353 352 347 342 338 335 332 330 327 323 322 323 331 94 207 254 295 300 313 295 250 145 129 183 210 200 225 268 203 217 210 245 263 250 253 242 249 269 276 283 319 321 324 159 33
4 358 354 350 346 342 339 336 332 328 326 322 317 312 302 304 238 343 312 303 273 242 316 146 181 179 193 224 217 242 239 226 202 197 247 277 269 274 259 284 281 290 297 332 335 349 227
356 354 352 348 346 342 339 336 334 330 327 323 315 309 234 218 245 307 306 315 253 267 267 333 273 181 180 196 215 232 245 213 235 227 228 228 271 258 262 238 220 236 192 159 227 245 240
352 353 350 348 345 342 340 338 335 333 329 326 313 157 225 239 214 250 294 254 236 278 332 343 334 240 267 282 212 198 219 237 201 209 228 234 244 248 234 246 194 276 302 231 237 265 334
358 353 351 349 347 345 343 342 339 337 332 334 312 278 230 159 179 208 244 271 309 302 292 359 338 356 332 325 274 209 195 218 212 232 207 251 281 272 268 225 238 171 214 305 329 210 255
356 353 350 349 348 346 345 345 343 341 335 337 243 262 122 132 156 246 249 269 294 298 329 43 335 321 318 318 325 336 212 224 208 223 218 218 228 268 286 260 206 235 198 256 220 163 179
354 353 352 351 349 348 347 347 347 347 339 354 307 257 166 144 174 218 233 246 271 290 314 92 243 286 298 315 324 326 338 258 319 205 217 214 207 241 256 264 243 184 183 187 137 283 230
353 353 353 352 351 350 348 347 349 353 3 321 305 259 162 194 260 271 302 275 250 277 337 331 301 303 296 292 314 316 325 317 316 7 58 343 253 240 329 320 329 220 201 192 226 200 254
352 353 354 352 352 352 350 348 347 347 347 244 288 300 119 186 244 279 286 307 323 315 259 241 289 311 318 321 314 298 306 307 313 336 120 56 311 168 199 239 254 306 194 206 184 208 246
351 352 353 352 352 353 352 351 349 346 345 211 243 342 26 319 335 325 321 344 334 318 326 58 335 274 299 307 314 310 305 340 343 293 301 107 273 312 292 292 294 273 257 229 207 220 199
349 349 351 352 352 353 354 354 355 353 339 291 10 349 344 298 295 300 289 355 322 316 18 341 174 329 333 337 352 300 338 339 294 334 335 268 273 294 294 293 297 301 293 295 264 210 227
346 346 350 351 353 354 355 356 359 5 352 356 360 336 277 287 306 317 348 311 315 335 349 4 20 5 311 350 317 301 297 306 303 302 309 293 203 222 259 281 305 316 277 289 294 281 196
341 342 347 350 353 354 355 356 359 5 16 295 292 317 291 300 323 338 327 347 348 347 324 309 298 170 267 5 320 327 310 296 301 297 292 300 340 197 228 258 278 259 289 288 291 286 287
335 338 342 346 350 351 353 356 357 358 1 319 292 360 318 300 323 321 344 338 330 314 304 305 288 220 173 75 7 311 311 308 272 261 280 290 289 303 166 235 253 286 281 275 258 278 263
326 333 340 342 346 349 351 354 355 356 358 332 283 15 309 307 185 348 335 333 353 341 325 328 337 349 224 135 157 257 275 277 268 238 236 241 237 187 298 260 263 251 338 315 279 265 346
311 324 332 336 341 345 347 351 352 354 355 340 285 304 312 293 276 7 297 313 296 309 291 306 346 324 307 326 254 249 275 273 275 271 261 271 281 238 261 233 262 20 329 19 71 267 339
298 314 324 329 334 339 342 344 347 350 352 352 284 305 357 285 292 255 352 321 322 298 281 331 328 20 327 346 295 295 289 290 292 315 332 237 127 301 309 216 270 352 9 59 274 305 346
286 302 313 320 327 333 336 337 340 344 349 348 286 350 330 257 270 299 284 266 245 245 280 299 293 323 291 37 345 331 314 288 299 309 340 61 44 313 32 289 53 22 2 341 346 339 351